Location: Haram ta Haram Freeway
(35.0583°N, 51.4202°E)
Time: 21:46:44
(UTC+04:30)

Tiangong - Pass Details

Date: 10 August 2021
Orbit: 380 x 386 km, 41.5° (Epoch: 18 September)

Event Time Altitude Azimuth Distance (km) Brightness Sun altitude
Exits shadow 04:20:38 49° 56° (NE) 508 2.0 -22.1°
Drops below altitude 10° 04:23:05 10° 64° (ENE) 1,419 5.0 -21.7°
Sets 04:25:11 0° 65° (ENE) 2,281 6.4 -21.4°
